x

Buoy A01 - Mass. Bay/stellwagen (44029) Wave Buoy

3:04pm - Thu 24th Apr 2014 All times are EDT. -4 hours from GMT.

  • Sig Wave height 3.6ft
  • Peak Period 4s
  • Wind
    22mph, 29mph gusts
  • Sea Temp 41°f
  • Air Temp 49°f
  • Sea Pressure 1002.9mb
  • Buoy A01 - Mass. Bay/stellwagen
  • Buoy A01 - Mass. Bay/stellwagen

More Historic Weather Station data

Upgrade to MSW Pro to gain access to the past 30 days of data for over 8000 Wavebouys and Weather Stations around the globe.

Join Pro

Comparision Forecast

View Surf forecast
   
Thu 04/24 3:04pm 3.5ft 4s 22 29 mph 1002.9mb 41f 49f
2:04pm 3.5ft 4s 25 31 mph 1002.7mb 41f 48f
1:04pm 3.5ft 4s 22 29 mph 1002.5mb 41f 47f
12:04pm 4ft 4s 27 31 mph 1002.7mb 41f 45f
11:04am 4ft 5s 29 36 mph 1002.4mb 41f 44f
10:04am 4ft 4s 27 34 mph 1002.2mb 41f 42f
9:04am 4.5ft 5s 27 34 mph 1002mb 41f 42f
8:04am 3.5ft 4s 27 34 mph 1001.5mb 41f 41f
7:04am 3.5ft 4s 25 34 mph 1001.1mb 41f 41f
6:04am 4ft 4s 27 34 mph 1000.6mb 41f 42f
5:04am 4ft 4s 27 34 mph 999.9mb 41f 43f
4:04am 4ft 5s 27 36 mph 999.4mb 41f 43f
3:04am 4ft 4s 25 31 mph 999.2mb 41f 44f
2:04am 3.5ft 4s 29 36 mph 999.7mb 41f 44f
1:04am 3.5ft 3s 22 29 mph 999.9mb 41f 45f
12:04am 3.5ft 4s 22 29 mph 999.7mb 40f 45f
Wed 04/23 11:04pm 3.5ft 3s 22 27 mph 999.1mb 40f 45f
10:04pm 3.5ft 4s 22 27 mph 998.5mb 40f 46f
9:04pm 3ft 3s 20 27 mph 998.1mb 40f 46f
8:04pm 3ft 3s 22 25 mph 997.4mb 41f 47f
7:04pm 3.5ft 4s 22 31 mph 996.5mb 41f 47f
6:04pm 3.5ft 3s 25 29 mph 995.7mb 42f 47f
5:04pm 2ft 3s 20 25 mph 995.2mb 43f 47f
4:04pm 2.5ft 8s 13 18 mph 994.8mb 43f 46f
3:04pm 2.5ft 3s 18 22 mph 994.5mb 43f 46f
2:04pm 3.5ft 3s 22 29 mph 994.3mb 43f 47f
1:04pm 2.5ft 8s 22 25 mph 994.3mb 43f 47f
12:04pm 2ft 8s 13 16 mph 994.5mb 43f 48f
11:04am 2ft 8s 7
mph
995mb 44f 48f
10:04am 1.6ft 8s 9 11 mph 995.9mb 43f 48f
9:04am 1.6ft 8s 9 11 mph 994.7mb 43f 48f
8:04am 1.6ft 8s 4
mph
995.1mb 43f 45f
7:04am 2ft 8s 7 9 mph 995.2mb 42f 45f
6:04am 2ft 8s 7
mph
995.1mb 43f 46f
5:04am  -   -  13
mph
995.1mb 43f 45f
4:04am 2.5ft 8s 4
mph
995mb 43f 45f
3:04am 2.5ft 8s 9
mph
995.5mb 43f 45f
2:04am 2.5ft 8s 7 9 mph 995.5mb 43f 44f
1:04am 3.5ft 11s 7
mph
996.3mb 43f 45f
12:04am 2ft 5s 11
mph
997mb 43f 45f
Tue 04/22 11:04pm 2.5ft 4s 16 18 mph 997.3mb 43f 47f
10:04pm 2ft 5s 11 13 mph 997.5mb 43f 46f
9:04pm 2.5ft 5s 11 13 mph 997.5mb 43f 46f
8:04pm 3ft 5s 16
mph
997.1mb 43f 47f
7:04pm 3.5ft 8s 16 18 mph 997mb 43f 48f
6:04pm 3ft 5s 16 18 mph 997.1mb 43f 49f
5:04pm 3.5ft 5s 18 20 mph 997.6mb 44f 48f
4:04pm 3.5ft 5s 20 25 mph 997.9mb 43f 49f
3:04pm 2.5ft 3s 20 27 mph 998.6mb 43f 50f
2:04pm 3ft 8s 16 18 mph 1000mb 44f 48f
1:04pm 2.5ft 8s 11 13 mph 1001mb 44f 47f
12:04pm 2.5ft 8s 13 16 mph 1002.1mb 43f 48f
11:04am 2ft 8s 9
mph
1003mb 43f 45f
10:04am 2ft 8s 9 11 mph 1003.7mb 43f 45f
9:04am 2ft 8s 9 11 mph 1004.3mb 43f 43f
8:04am 2ft 8s 9
mph
1005mb 43f 43f
7:04am 2ft 8s 9 11 mph 1005.5mb 43f 44f
6:04am 2ft 8s 7 9 mph 1005.5mb 43f 44f
5:04am 2ft 8s 13
mph
1005.7mb 43f 44f
4:04am 2ft 4s 11 13 mph 1006.2mb 42f 44f
3:04am 2.5ft 8s 9 11 mph 1007.2mb 42f 44f
2:04am 2.5ft 8s 13 16 mph 1007.6mb 42f 45f
1:04am 2.5ft 8s 11 16 mph 1008.2mb 42f 45f
12:04am 2ft 4s 13
mph
1009.2mb 42f 45f
Mon 04/21 11:04pm 2.5ft 4s 13
mph
1009.7mb 42f 44f
10:04pm 2.5ft 4s 13 16 mph 1010mb 43f 45f
9:04pm 2.5ft 4s 11
mph
1010.5mb 43f 46f
8:04pm 2ft 4s 9 11 mph 1010.5mb 43f 45f
7:04pm 2.5ft 4s 16 18 mph 1010.4mb 43f 47f
6:04pm 2.5ft 3s 18 20 mph 1010.7mb 43f 48f
5:04pm 2.5ft 3s 18
mph
1011.7mb 43f 47f
4:04pm 2.5ft 8s 16 20 mph 1012.7mb 43f 47f
3:04pm 2ft 8s 11 13 mph 1014.3mb 43f 44f
2:04pm 1.6ft 8s 13
mph
1015.6mb 43f 45f
1:04pm 1.6ft 8s 13 16 mph 1016.9mb 43f 43f
12:04pm 1.6ft 8s 13 16 mph 1018.7mb 42f 42f
11:04am 1.3ft 5s 11 13 mph 1020.2mb 42f 41f
10:04am 1.6ft 8s 11 13 mph 1020.8mb 42f 39f
9:04am 1.6ft 8s 11
mph
1021.5mb 42f 39f
8:04am 2ft 8s 11 13 mph 1021.9mb 41f 39f
7:04am 2ft 8s 11 13 mph 1022.3mb 41f 40f
6:04am 1.6ft 4s 11 13 mph 1022.5mb 41f 39f
5:04am 1.6ft 8s 9 11 mph 1022.5mb 41f 38f
4:04am 2ft 8s 9 11 mph 1023.2mb 42f 39f
3:04am 2ft 8s 11
mph
1023.5mb 41f 38f
2:04am 2.5ft 8s 9 11 mph 1024.4mb 42f 39f
1:04am 2ft 6s 9 11 mph 1025.6mb 41f 40f
12:04am 2.5ft 8s 13 16 mph 1026.5mb 42f 41f
Sun 04/20 11:04pm 2.5ft 8s 11 13 mph 1027.3mb 41f 41f
10:04pm 2.5ft 8s 13 16 mph 1027.9mb 42f 41f
9:04pm 2.5ft 8s 16
mph
1028.3mb 43f 41f